Weather History for KL38 - September, 2013

Change the Weather History Date:

Wednesday, September 11, 2013

  Actual Average (KBTR) Record (KBTR)
Temperature  
Mean Temperature 80 °F 80 °F  
Max Temperature 90 °F 90 °F 102 °F (1921)
Min Temperature 71 °F 70 °F 55 °F (1907)
Degree Days  
Heating Degree Days 0 0  
Month to date heating degree days 0  
Since 1 July heating degree days 0  
Cooling Degree Days 16 15  
Month to date cooling degree days 176  
Year to date cooling degree days 2337  
Growing Degree Days 30 (Base 50)    
Moisture  
Dew Point 72 °F    
Average Humidity 79    
Maximum Humidity 99    
Minimum Humidity 49    
Precipitation  
Precipitation 0.00 in 0.16 in 3.53 in (1961)
Month to date precipitation 1.79  
Year to date precipitation 43.50  
Snow  
Snow 0.00 in - - ()
Month to date snowfall  
Since 1 July snowfall  
Since 1 September snowfall  
Snow Depth -    
Sea Level Pressure  
Sea Level Pressure 30.07 in    
Wind  
Wind Speed 2 mph (ENE)    
Max Wind Speed 12 mph    
Max Gust Speed 17 mph    
Visibility 9 miles    
Events      
T = Trace of Precipitation, MM = Missing Value Source: NWS Daily Summary

Daily Weather History Graph

Daily Weather History Graph

Search for Another Location

Airport or City:

Trip Planner

Search our weather history database for the weather conditions in past years. The results will help you decide how hot, cold, wet, or windy it might be!

Date:

Astronomy

Sep. 11, 2013 Rise Set
Actual Time 6:46 AM CDT 7:13 PM CDT
Civil Twilight 6:22 AM CDT 7:37 PM CDT
Nautical Twilight 5:53 AM CDT 8:06 PM CDT
Astronomical Twilight 5:25 AM CDT 8:34 PM CDT
Moon 12:47 PM CDT (9/11) 11:37 PM CDT (9/11)
Length of Visible Light 13h 15m
Length of Day
12h 27m
Waxing Crescent, 39% of the Moon is Illuminated
Sep 11
Waxing Crescent
Sep 12
First Quarter
Sep 19
Full
Sep 26
Last Quarter
Oct 4
New

Hourly Weather History & Observations

Time (CDT) Temp. Heat Index Dew Point Humidity Pressure Visibility Wind Dir Wind Speed Gust Speed Precip Events Conditions
12:15 AM 74.7 °F - 73.0 °F 95% 30.08 in 10.0 mi Calm Calm - N/A   Clear
12:35 AM 73.9 °F - 72.9 °F 96% 30.07 in 7.0 mi Calm Calm - N/A   Clear
12:55 AM 73.6 °F - 72.7 °F 97% 30.07 in 7.0 mi Calm Calm - N/A   Clear
1:15 AM 73.6 °F - 72.5 °F 96% 30.07 in 7.0 mi Calm Calm - N/A   Clear
1:35 AM 72.9 °F - 72.3 °F 98% 30.07 in 4.0 mi Calm Calm - N/A   Clear
1:55 AM 73.0 °F - 72.5 °F 98% 30.06 in 7.0 mi Calm Calm - N/A   Clear
2:15 AM 72.5 °F - 72.0 °F 98% 30.06 in 4.0 mi Calm Calm - N/A   Clear
2:35 AM 72.5 °F - 71.8 °F 98% 30.06 in 5.0 mi Calm Calm - N/A   Clear
2:55 AM 72.9 °F - 72.5 °F 99% 30.06 in 7.0 mi Calm Calm - N/A   Clear
3:15 AM 72.1 °F - 71.6 °F 98% 30.06 in 5.0 mi Calm Calm - N/A   Clear
3:35 AM 72.1 °F - 71.6 °F 98% 30.06 in 5.0 mi Calm Calm - N/A   Clear
3:55 AM 72.5 °F - 72.0 °F 98% 30.06 in 5.0 mi Calm Calm - N/A   Clear
4:15 AM 72.9 °F - 72.5 °F 99% 30.07 in 7.0 mi Calm Calm - N/A   Clear
4:35 AM 72.0 °F - 71.4 °F 98% 30.07 in 7.0 mi Calm Calm - N/A   Clear
4:55 AM 71.4 °F - 70.9 °F 98% 30.07 in 2.0 mi Calm Calm - N/A   Clear
5:15 AM 71.8 °F - 71.6 °F 99% 30.07 in 3.0 mi Calm Calm - N/A   Clear
5:35 AM 72.0 °F - 71.6 °F 99% 30.08 in 5.0 mi Calm Calm - N/A   Clear
5:55 AM 71.6 °F - 71.2 °F 99% 30.08 in 3.0 mi Calm Calm - N/A   Scattered Clouds
6:15 AM 72.1 °F - 71.8 °F 99% 30.08 in 7.0 mi Calm Calm - N/A   Clear
6:35 AM 73.0 °F - 72.5 °F 98% 30.08 in 7.0 mi NNE 3.5 mph - N/A   Clear
6:55 AM 73.4 °F - 72.1 °F 96% 30.09 in 7.0 mi Calm Calm - N/A   Clear
7:15 AM 73.4 °F - 72.0 °F 95% 30.09 in 7.0 mi Calm Calm - N/A   Clear
7:35 AM 74.3 °F - 72.1 °F 93% 30.09 in 10.0 mi NNE 3.5 mph - N/A   Clear
7:55 AM 75.2 °F - 72.5 °F 91% 30.09 in 10.0 mi NNE 3.5 mph - N/A   Clear
8:15 AM 76.5 °F - 72.9 °F 89% 30.10 in 10.0 mi NE 3.5 mph - N/A   Clear
8:35 AM 78.1 °F - 73.4 °F 85% 30.09 in 10.0 mi NE 4.6 mph - N/A   Clear
9:15 AM 81.0 °F 86.3 °F 74.3 °F 80% 30.10 in 10.0 mi ENE 3.5 mph - N/A   Clear
9:35 AM 82.4 °F 89.0 °F 74.7 °F 77% 30.11 in 10.0 mi ENE 3.5 mph - N/A   Clear
9:55 AM 83.3 °F 91.1 °F 75.4 °F 77% 30.11 in 10.0 mi NE 5.8 mph - N/A   Scattered Clouds
10:15 AM 84.4 °F 92.7 °F 75.4 °F 74% 30.11 in 10.0 mi NE 4.6 mph - N/A   Scattered Clouds
10:35 AM 84.6 °F 92.4 °F 74.7 °F 72% 30.11 in 10.0 mi East 6.9 mph - N/A   Mostly Cloudy
10:55 AM 85.8 °F 93.8 °F 74.1 °F 68% 30.11 in 10.0 mi East 8.1 mph - N/A   Mostly Cloudy
11:15 AM 86.9 °F 95.4 °F 74.1 °F 66% 30.11 in 10.0 mi ENE 8.1 mph - N/A   Mostly Cloudy
11:35 AM 86.7 °F 94.6 °F 73.8 °F 65% 30.11 in 10.0 mi ENE 8.1 mph - N/A   Scattered Clouds
11:55 AM 87.4 °F 95.3 °F 73.2 °F 63% 30.11 in 10.0 mi ENE 8.1 mph - N/A   Scattered Clouds
12:15 PM 88.0 °F 95.6 °F 73.0 °F 61% 30.10 in 10.0 mi ENE 8.1 mph - N/A   Scattered Clouds
12:35 PM 88.0 °F 95.1 °F 72.7 °F 60% 30.10 in 10.0 mi ENE 11.5 mph - N/A   Scattered Clouds
12:55 PM 88.9 °F 96.1 °F 72.1 °F 58% 30.09 in 10.0 mi East 6.9 mph 17.3 mph N/A   Scattered Clouds
1:15 PM 89.1 °F 96.5 °F 72.7 °F 58% 30.09 in 10.0 mi ENE 8.1 mph - N/A   Scattered Clouds
1:35 PM 89.6 °F 97.2 °F 72.3 °F 57% 30.08 in 10.0 mi East 9.2 mph - N/A   Clear
1:55 PM 89.4 °F 95.8 °F 71.2 °F 55% 30.07 in 10.0 mi ENE 9.2 mph - N/A   Clear
2:15 PM 89.1 °F 94.6 °F 70.7 °F 54% 30.06 in 10.0 mi ENE 9.2 mph - N/A   Clear
2:35 PM 90.0 °F 96.9 °F 71.6 °F 55% 30.06 in 10.0 mi East 6.9 mph - N/A   Clear
2:55 PM 89.8 °F 96.0 °F 71.1 °F 54% 30.05 in 10.0 mi ESE 5.8 mph - N/A   Clear
3:15 PM 90.3 °F 94.7 °F 68.7 °F 49% 30.04 in 10.0 mi ENE 6.9 mph - N/A   Clear
3:35 PM 90.5 °F 95.5 °F 69.8 °F 50% 30.04 in 10.0 mi ENE 6.9 mph - N/A   Clear
3:55 PM 89.6 °F 94.7 °F 69.8 °F 52% 30.04 in 10.0 mi ESE 5.8 mph - N/A   Clear
4:15 PM 90.7 °F 95.9 °F 69.6 °F 50% 30.03 in 10.0 mi East 6.9 mph - N/A   Clear
4:35 PM 89.8 °F 94.2 °F 68.7 °F 50% 30.03 in 10.0 mi East 9.2 mph - N/A   Clear
4:55 PM 89.6 °F 94.3 °F 69.3 °F 51% 30.03 in 10.0 mi East 5.8 mph - N/A   Clear
5:15 PM 90.0 °F 94.5 °F 69.3 °F 50% 30.03 in 10.0 mi ENE 6.9 mph - N/A   Clear
5:35 PM 88.2 °F 93.7 °F 70.9 °F 56% 30.03 in 10.0 mi Calm Calm - N/A   Clear
5:55 PM 87.1 °F 92.4 °F 70.9 °F 58% 30.03 in 10.0 mi East 3.5 mph - N/A   Clear
6:15 PM 87.3 °F 93.6 °F 71.6 °F 60% 30.02 in - ESE 3.5 mph - N/A   Clear
6:35 PM 86.0 °F 91.8 °F 71.6 °F 62% 30.02 in 10.0 mi East 3.5 mph - N/A   Clear
6:55 PM 84.7 °F 90.0 °F 71.2 °F 64% 30.01 in 10.0 mi Calm Calm - N/A   Clear
7:15 PM 84.2 °F 89.3 °F 71.1 °F 65% 30.02 in 10.0 mi Calm Calm - N/A   Clear
7:35 PM 78.4 °F - 74.1 °F 87% 30.02 in 10.0 mi Calm Calm - N/A   Clear
7:55 PM 78.8 °F - 73.8 °F 84% 30.03 in 10.0 mi Calm Calm - N/A   Clear
8:15 PM 78.3 °F - 73.0 °F 84% 30.04 in 10.0 mi Calm Calm - N/A   Clear
8:35 PM 77.0 °F - 73.4 °F 89% 30.04 in 10.0 mi Calm Calm - N/A   Clear
8:55 PM 76.6 °F - 72.7 °F 87% 30.05 in 10.0 mi Calm Calm - N/A   Clear
9:15 PM 75.4 °F - 72.9 °F 92% 30.05 in 10.0 mi Calm Calm - N/A   Clear
9:35 PM 75.6 °F - 72.5 °F 90% 30.06 in 10.0 mi Calm Calm - N/A   Clear
9:55 PM 75.2 °F - 72.5 °F 91% 30.06 in 10.0 mi Calm Calm - N/A   Clear
10:15 PM 74.3 °F - 72.1 °F 93% 30.06 in 10.0 mi Calm Calm - N/A   Clear
10:35 PM 74.1 °F - 72.0 °F 93% 30.06 in 10.0 mi Calm Calm - N/A   Clear
10:55 PM 74.3 °F - 72.3 °F 94% 30.05 in 10.0 mi Calm Calm - N/A   Clear
11:15 PM 73.9 °F - 71.8 °F 93% 30.05 in 10.0 mi Calm Calm - N/A   Clear
11:35 PM 74.1 °F - 72.0 °F 93% 30.05 in 10.0 mi Calm Calm - N/A   Clear
11:55 PM 73.6 °F - 71.8 °F 94% 30.05 in 10.0 mi Calm Calm - N/A   Clear